SCP
0 0 0 0 0 0 0 0 0 0 0 0 0 0 0 0 0 0 0 0 0 0 0 0 0 0 0 0 0 0 0 0 0 0 0 0 0 0 0 0 0 0 0
0 0 0 0 0 0 0 0 0 0 0 0 0 0 0 0 0 0 0 0 0 0 0 0 0 0 0 0 0 0 0 0 0 0 0 0 0 0 0 0 0 0 0
0 0 0 0 0 0 0 0 0 0 0 0 0 0 0 0 0 0 0 0 0 0 0 0 0 0 0 0 0 0 0 0 0 0 0 0 0 0 0 0 0 0 0
0 0 0 0 0 0 0 0 0 0 0 0 0 0 0 0 0 0 0 0 0 0 0 0 0 0 0 0 0 0 0 0 0 0 0 0 0 0 0 0 0 0 0
0 0 0 0 0 0 0 0 0 0 0 0 0 0 0 0 0 0 0 0 0 0 0 0 0 0 0 0 0 0 0 0 0 0 0 0 0 0 0 0 0 0 0
1 0 0 0 0 0 0 0 0 0 0 0 0 0 0 0 0 0 0 0 0 0 0 0 0 0 0 0 0 0 0 0 0 0 0 0 0 0 0 0 0 0 0
0 0 0 0 0 0 0 0 0 0 0 0 0 0 0 0 0 0 0 0 0 0 0 0 0 0 0 0 0 0 0 0 0 0 0 0 0 0 0 0 0 0 0
0 0 0 0 0 0 0 0 0 0 0 0 0 0 0 0 0 0 0 0 0 0 0 0 0 0 0 0 0 0 0 0 0 0 0 0 0 0 0 0 0 0 0
0 0 0 0 0 0 0 0 0 0 0 0 0 0 0 0 0 0 0 0 0 0 0 0 0 0 0 0 0 0 0 0 0 0 0 0 0 0 0 0 0 0 0
0 0 0 0 0 0 0 0 0 0 0 0 0 0 0 0 0 0 0 0 0 0 0 0 0 0 0 0 0 0 0 0 0 0 0 0 0 0 0 0 0 0 0
0 0 0 0 0 0 0 0 0 0 0 0 0 0 0 0 0 0 0 0 0 0 0 0 0 0 0 0 0 0 0 0 0 0 0 0 0 0 0 0 0 0 0
0 0 0 0 0 0 0 0 0 0 0 0 0 0 0 0 0 0 0 0 0 0 0 0 0 0 0 0 0 0 0 0 0 0 0 0 0 0 0 0 0 0 0
0 0 0 0 0 0 0 0 0 0 0 0 0 0 0 0 0 0 0 0 0 0 0 0 0 0 0 0 0 0 0 0 0 0 0 0 0 0 0 0 0 0 0
0 0 0 0 0 0 0 0 0 0 0 0 0 0 0 0 0 0 0 0 0 0 0 0 0 0 0 0 0 0 0 0 0 0 0 0 0 0 0 0 0 0 0
0 0 0 0 0 0 0 0 0 0 0 0 0 0 0 0 0 0 0 0 0 0 0 0 0 0 0 0 0 0 0 0 0 0 0 0 0 0 0 0 0 0 0
0 0 0 0 0 0 0 0 0 0 0 0 0 0 0 0 0 0 0 0 0 0 0 0 0 0 0 0 0 0 0 0 0 0 0 0 0 0 0 0 0 0 0
0 0 0 0 0 0 0 0 0 0 0 0 0 0 0 0 0 0 0 0 0 0 0 0 0 0 0 0 0 0 0 0 0 0 0 0 0 0 0 0 0 0 0
0 0 0 0 0 0 0 0 0 0 0 0 0 0 0 0 0 0 0 0 0 0 0 0 0 0 0 0 0 0 0 0 0 0 0 0 0 0 0 0 0 0 0
0 0 0 0 0 0 0 0 0 0 0 0 0 0 0 0 0 0 0 0 0 0 0 0 0 0 0 0 0 0 0 0 0 0 0 0 0 0 0 0 0 0 0
0 0 0 0 0 0 0 0 0 0 0 0 0 0 0 0 0 0 0 0 0 0 0 0 0 0 0 0 0 0 0 0 0 0 0 0 0 0 0 0 0 0 0
0 0 0 0 0 0 0 0 0 0 0 0 0 0 0 0 0 0 0 0 0 0 0 0 0 0 0 0 0 0 0 0 0 0 0 0 0 0 0 0 0 0 0
0 0 0 0 0 0 0 0 0 0 0 0 0 0 0 0 0 0 0 0 0 0 0 0 0 0 0 0 0 0 0 0 0 0 0 0 0 0 0 0 0 0 0
0 0 0 0 0 0 0 0 0 0 0 0 0 0 0 0 0 0 0 0 0 0 0 0 0 0 0 0 0 0 0 0 0 0 0 0 0 0 0 0 0 0 0
0 0 0 0 0 0 0 0 0 0 0 0 0 0 0 0 0 0 0 0 0 0 0 0 0 0 0 0 0 0 0 0 0 0 0 0 0 0 0 0 0 0 0
0 0 0 0 0 0 0 0 0 0 0 0 0 0 0 0 0 0 0 0 0 0 0 0 0 0 0 0 0 0 0 0 0 0 0 0 0 0 0 0 0 0 0
0 0 0 0 0 0 0 0 0 0 0 0 0 0 0 0 0 0 0 0 0 0 0 0 0 0 0 0 0 0 0 0 0 0 0 0 0 0 0 0 0 0 0
Wind_Speed_500mb
101 98 99 99 99 99 98 92 86 86 79 56 68 67 75 75 76 76 71 68 68 62 57 56 56 59 57 58 52 53 59 54 63 66 64 61 61 62 61 68 70 75 75
105 91 84 77 78 82 84 92 87 62 52 67 82 65 67 71 69 65 64 66 65 53 49 54 56 58 52 45 46 51 50 47 58 63 64 64 65 61 63 65 69 79 86
95 87 80 67 62 89 79 82 72 78 75 77 68 60 50 55 55 54 54 51 42 41 46 52 54 48 45 47 43 44 43 46 50 62 70 71 70 72 77 78 85 87 92
99 99 95 74 67 76 74 79 85 78 76 82 62 51 46 45 44 44 41 39 41 44 46 45 42 42 46 42 34 36 45 52 56 64 72 76 78 80 75 73 78 78 81
90 87 92 90 69 63 71 71 64 75 66 58 54 50 43 39 40 41 39 36 37 37 37 36 36 36 37 44 37 46 53 59 60 58 64 68 72 70 75 81 79 82 85
80 77 72 68 68 61 56 55 51 55 52 48 44 42 42 44 40 38 35 32 31 31 31 32 32 31 45 41 45 46 40 47 52 57 62 69 79 73 73 71 75 75 80
53 60 55 57 55 56 57 52 50 47 43 41 41 41 41 40 40 37 33 33 30 29 31 34 39 45 43 47 49 45 47 49 56 65 75 79 87 86 83 92 90 86 87
52 56 61 63 59 55 50 46 45 44 39 34 36 39 39 37 35 36 35 32 31 34 37 37 38 39 44 49 50 56 59 62 63 66 70 78 77 78 70 72 71 78 94
49 50 50 47 45 43 43 42 38 35 34 33 31 31 33 35 35 34 32 33 35 36 34 35 35 41 46 53 56 59 61 60 61 62 62 63 64 60 52 55 63 64 72
43 41 38 37 35 35 34 35 33 32 31 30 31 30 31 34 34 29 29 29 31 29 33 39 42 45 46 47 53 56 59 61 63 66 65 64 63 61 53 49 52 56 67
44 44 42 37 34 32 31 31 33 34 34 34 34 32 31 30 31 34 30 28 30 33 35 39 39 39 45 48 52 49 50 57 62 64 65 66 66 65 63 61 62 62 61
46 42 39 37 34 33 33 35 36 36 34 36 40 44 41 40 37 33 30 30 31 34 35 36 38 41 45 45 43 43 49 53 56 60 63 66 69 71 71 71 64 62 59
43 39 36 32 30 29 30 34 35 35 36 39 41 42 42 40 35 33 33 33 33 34 35 37 41 41 38 37 38 42 45 48 52 55 58 61 64 66 69 71 64 59 51
38 36 35 36 35 35 37 34 34 37 36 36 37 36 36 33 30 29 29 31 33 34 34 33 34 35 35 36 37 39 41 43 47 51 55 57 61 63 66 62 67 58 56
41 43 40 38 38 40 37 35 35 31 24 25 27 28 29 31 29 31 31 33 34 35 33 34 34 35 36 37 38 40 43 45 47 50 52 54 59 62 65 58 64 53 58
44 41 39 39 38 36 38 38 33 25 24 23 22 24 26 28 32 31 32 34 33 33 31 33 35 37 37 40 42 45 47 48 49 50 51 52 57 59 64 61 62 56 56
42 44 42 40 37 32 26 21 21 19 20 19 21 22 23 23 24 23 22 20 22 29 31 34 35 38 42 44 46 49 51 51 51 50 49 50 52 53 58 63 62 58 54
40 39 38 35 31 27 22 18 14 11 13 13 15 23 28 29 28 29 32 36 35 35 36 37 40 42 44 48 50 52 54 53 51 50 47 47 49 52 57 60 59 59 57
36 33 28 22 16 12 10 13 18 21 22 21 20 24 28 31 36 36 39 42 37 35 36 38 41 44 47 50 51 53 52 51 50 47 47 46 46 49 56 55 57 54 52
20 17 19 21 24 26 22 20 19 16 17 20 24 27 30 33 36 38 39 36 36 36 39 42 45 47 50 49 50 48 50 49 46 46 45 47 46 48 52 54 54 57 53
25 24 20 14 13 13 11 11 14 17 19 23 24 27 32 34 36 38 40 37 37 40 43 45 46 48 49 51 48 48 48 45 44 43 43 46 47 51 51 52 52 52 49
14 11 8 6 5 8 11 14 16 18 20 22 25 28 33 37 38 36 35 37 39 41 44 46 47 50 52 49 47 49 46 42 40 43 46 47 49 51 53 54 53 51 48
5 3 1 5 8 12 14 14 16 20 24 27 28 29 30 32 34 36 38 40 42 45 48 49 52 54 50 43 44 42 41 39 41 45 47 49 52 53 54 55 52 53 51
8 9 9 11 13 15 16 17 19 19 19 23 28 30 32 35 37 39 42 46 49 49 51 53 55 55 47 46 41 37 37 39 42 43 40 49 53 52 52 51 51 51 50
14 13 14 15 15 14 15 18 21 24 26 28 31 33 36 39 41 42 43 44 51 53 52 52 51 47 48 45 40 38 38 40 39 35 40 46 48 49 48 50 51 50 47
14 15 15 15 17 19 21 21 23 25 29 30 32 37 41 40 41 46 49 53 52 51 49 49 48 47 43 41 39 38 36 35 34 33 39 43 46 46 46 49 48 46 42
Wind_Direction_500mb
230 232 234 234 236 240 243 244 245 233 232 249 257 262 260 257 253 234 238 236 242 258 250 242 242 249 258 243 242 249 261 269 270 278 279 277 281 284 283 283 278 276 276
236 230 230 238 241 240 242 250 253 227 228 256 256 258 255 252 237 236 243 248 254 251 242 239 244 255 244 240 249 263 274 268 272 282 284 282 281 282 281 277 275 275 276
227 224 226 235 258 247 247 248 247 238 232 239 254 249 238 235 244 246 245 246 247 247 240 242 250 247 244 249 262 270 268 276 275 280 285 288 288 287 284 279 273 269 267
231 229 228 231 248 243 247 246 246 238 245 236 240 229 233 238 235 235 238 242 244 235 236 246 245 237 251 250 271 273 276 277 279 282 285 288 291 293 292 292 292 292 291
235 238 237 235 235 239 240 240 235 236 226 218 222 229 226 225 232 234 235 235 239 226 234 229 232 248 244 255 284 276 273 276 278 281 282 286 290 294 296 297 293 293 290
230 230 232 225 228 226 223 211 204 203 211 217 222 223 226 229 228 226 229 227 217 217 213 223 236 256 257 264 275 272 269 275 280 285 287 289 289 292 293 292 291 288 284
214 218 221 215 210 202 192 194 202 206 209 212 214 216 219 221 220 226 219 203 198 203 214 222 236 258 267 272 275 272 273 276 281 286 287 289 290 292 294 291 289 288 289
196 192 188 185 184 185 190 197 203 210 210 209 207 206 208 206 202 192 184 188 194 206 219 243 257 263 266 273 277 281 283 285 286 287 288 289 291 294 296 296 296 297 288
192 189 189 192 194 188 187 192 196 201 199 195 191 190 188 184 182 189 190 196 209 225 236 249 254 266 275 279 283 286 290 292 291 291 292 294 294 293 296 304 292 306 299
206 205 200 199 197 193 196 194 195 194 191 182 175 174 177 183 183 194 202 207 224 234 240 253 265 272 276 280 287 294 297 301 305 308 310 311 312 311 299 291 303 302 301
211 207 203 200 203 204 202 196 188 180 177 175 179 175 181 192 201 212 219 227 235 245 257 268 276 282 287 291 295 299 301 305 309 311 313 314 314 313 311 303 292 291 297
208 203 200 200 201 196 191 181 180 182 188 187 181 177 188 202 213 220 227 238 252 261 273 283 290 294 296 298 300 298 301 307 310 312 314 316 317 317 316 315 308 294 284
203 201 198 193 189 187 191 187 187 193 198 197 198 199 199 202 210 221 233 249 264 278 284 289 293 293 294 295 295 300 306 309 313 316 318 317 318 318 317 317 308 303 285
201 195 190 189 189 191 192 193 195 195 197 200 201 205 208 213 225 238 251 267 277 283 287 290 289 291 294 297 304 308 312 316 318 318 317 317 318 319 321 320 320 313 306
192 188 192 195 190 184 186 187 192 192 209 217 213 220 228 234 245 259 269 274 279 284 291 293 292 294 299 305 309 312 315 316 317 318 319 320 321 321 324 323 326 318 314
189 190 192 190 189 187 184 178 180 193 205 217 224 235 243 252 260 266 270 278 285 294 297 297 299 302 306 311 314 315 316 318 320 319 320 321 322 323 324 324 328 326 322
191 175 171 175 177 183 188 199 208 203 222 229 235 242 248 261 275 281 285 294 297 298 298 300 302 305 311 313 314 314 317 320 318 318 319 320 321 323 325 327 330 327 326
179 177 184 183 187 191 194 195 201 211 238 260 290 298 296 298 301 307 312 316 310 301 301 304 306 307 309 310 311 312 315 315 315 316 317 318 322 323 327 328 330 328 328
169 165 164 167 181 190 204 232 237 255 275 285 289 285 291 292 295 298 305 308 303 299 301 302 303 303 306 308 308 310 311 313 314 315 315 314 320 323 326 328 328 327 326
165 157 163 182 206 222 233 240 242 253 262 264 272 280 286 286 290 298 302 301 297 298 301 303 303 305 307 308 308 308 309 312 314 315 315 316 319 325 327 328 328 329 325
158 181 209 205 212 226 243 257 263 269 277 280 282 283 282 286 294 300 302 300 298 299 302 303 306 309 310 311 308 308 311 313 314 313 315 316 322 323 326 326 327 327 325
173 178 197 221 249 270 279 286 292 295 294 290 286 284 287 292 296 297 296 294 296 298 300 304 306 311 314 311 308 308 307 308 308 311 316 319 320 321 325 325 325 325 328
136 149 275 308 311 310 311 305 295 291 292 292 292 292 293 295 295 295 295 296 296 297 300 302 305 308 309 303 303 303 302 303 304 310 316 316 316 318 322 321 323 325 326
29 15 359 342 329 325 322 312 308 309 304 301 301 300 298 297 297 297 298 298 297 298 301 303 304 305 303 303 303 296 290 292 299 308 309 311 314 317 317 319 320 321 321
9 0 350 342 333 327 321 317 314 310 307 306 305 302 301 303 307 306 303 305 306 304 302 302 301 301 301 300 297 290 288 293 300 304 306 308 313 312 314 314 315 316 320
354 347 344 336 328 322 319 315 313 311 309 309 307 308 312 313 313 316 316 313 310 305 303 303 304 302 298 295 291 288 293 297 300 302 304 309 313 312 315 314 313 314 319
Wind_Speed_850mb
101 98 99 99 99 99 98 92 86 86 79 56 68 67 75 75 76 76 71 68 68 62 57 56 56 59 57 58 52 53 59 54 63 66 64 61 61 62 61 68 70 75 75
105 91 84 77 78 82 84 92 87 62 52 67 82 65 67 71 69 65 64 66 65 53 49 54 56 58 52 45 46 51 50 47 58 63 64 64 65 61 63 65 69 79 86
95 87 80 67 62 89 79 82 72 78 75 77 68 60 50 55 55 54 54 51 42 41 46 52 54 48 45 47 43 44 43 46 50 62 70 71 70 72 77 78 85 87 92
99 99 95 74 67 76 74 79 85 78 76 82 62 51 46 45 44 44 41 39 41 44 46 45 42 42 46 42 34 36 45 52 56 64 72 76 78 80 75 73 78 78 81
90 87 92 90 69 63 71 71 64 75 66 58 54 50 43 39 40 41 39 36 37 37 37 36 36 36 37 44 37 46 53 59 60 58 64 68 72 70 75 81 79 82 85
80 77 72 68 68 61 56 55 51 55 52 48 44 42 42 44 40 38 35 32 31 31 31 32 32 31 45 41 45 46 40 47 52 57 62 69 79 73 73 71 75 75 80
53 60 55 57 55 56 57 52 50 47 43 41 41 41 41 40 40 37 33 33 30 29 31 34 39 45 43 47 49 45 47 49 56 65 75 79 87 86 83 92 90 86 87
52 56 61 63 59 55 50 46 45 44 39 34 36 39 39 37 35 36 35 32 31 34 37 37 38 39 44 49 50 56 59 62 63 66 70 78 77 78 70 72 71 78 94
49 50 50 47 45 43 43 42 38 35 34 33 31 31 33 35 35 34 32 33 35 36 34 35 35 41 46 53 56 59 61 60 61 62 62 63 64 60 52 55 63 64 72
43 41 38 37 35 35 34 35 33 32 31 30 31 30 31 34 34 29 29 29 31 29 33 39 42 45 46 47 53 56 59 61 63 66 65 64 63 61 53 49 52 56 67
44 44 42 37 34 32 31 31 33 34 34 34 34 32 31 30 31 34 30 28 30 33 35 39 39 39 45 48 52 49 50 57 62 64 65 66 66 65 63 61 62 62 61
46 42 39 37 34 33 33 35 36 36 34 36 40 44 41 40 37 33 30 30 31 34 35 36 38 41 45 45 43 43 49 53 56 60 63 66 69 71 71 71 64 62 59
43 39 36 32 30 29 30 34 35 35 36 39 41 42 42 40 35 33 33 33 33 34 35 37 41 41 38 37 38 42 45 48 52 55 58 61 64 66 69 71 64 59 51
38 36 35 36 35 35 37 34 34 37 36 36 37 36 36 33 30 29 29 31 33 34 34 33 34 35 35 36 37 39 41 43 47 51 55 57 61 63 66 62 67 58 56
41 43 40 38 38 40 37 35 35 31 24 25 27 28 29 31 29 31 31 33 34 35 33 34 34 35 36 37 38 40 43 45 47 50 52 54 59 62 65 58 64 53 58
44 41 39 39 38 36 38 38 33 25 24 23 22 24 26 28 32 31 32 34 33 33 31 33 35 37 37 40 42 45 47 48 49 50 51 52 57 59 64 61 62 56 56
42 44 42 40 37 32 26 21 21 19 20 19 21 22 23 23 24 23 22 20 22 29 31 34 35 38 42 44 46 49 51 51 51 50 49 50 52 53 58 63 62 58 54
40 39 38 35 31 27 22 18 14 11 13 13 15 23 28 29 28 29 32 36 35 35 36 37 40 42 44 48 50 52 54 53 51 50 47 47 49 52 57 60 59 59 57
36 33 28 22 16 12 10 13 18 21 22 21 20 24 28 31 36 36 39 42 37 35 36 38 41 44 47 50 51 53 52 51 50 47 47 46 46 49 56 55 57 54 52
20 17 19 21 24 26 22 20 19 16 17 20 24 27 30 33 36 38 39 36 36 36 39 42 45 47 50 49 50 48 50 49 46 46 45 47 46 48 52 54 54 57 53
25 24 20 14 13 13 11 11 14 17 19 23 24 27 32 34 36 38 40 37 37 40 43 45 46 48 49 51 48 48 48 45 44 43 43 46 47 51 51 52 52 52 49
14 11 8 6 5 8 11 14 16 18 20 22 25 28 33 37 38 36 35 37 39 41 44 46 47 50 52 49 47 49 46 42 40 43 46 47 49 51 53 54 53 51 48
5 3 1 5 8 12 14 14 16 20 24 27 28 29 30 32 34 36 38 40 42 45 48 49 52 54 50 43 44 42 41 39 41 45 47 49 52 53 54 55 52 53 51
8 9 9 11 13 15 16 17 19 19 19 23 28 30 32 35 37 39 42 46 49 49 51 53 55 55 47 46 41 37 37 39 42 43 40 49 53 52 52 51 51 51 50
14 13 14 15 15 14 15 18 21 24 26 28 31 33 36 39 41 42 43 44 51 53 52 52 51 47 48 45 40 38 38 40 39 35 40 46 48 49 48 50 51 50 47
14 15 15 15 17 19 21 21 23 25 29 30 32 37 41 40 41 46 49 53 52 51 49 49 48 47 43 41 39 38 36 35 34 33 39 43 46 46 46 49 48 46 42
Wind_Direction_850mb
230 232 234 234 236 240 243 244 245 233 232 249 257 262 260 257 253 234 238 236 242 258 250 242 242 249 258 243 242 249 261 269 270 278 279 277 281 284 283 283 278 276 276
236 230 230 238 241 240 242 250 253 227 228 256 256 258 255 252 237 236 243 248 254 251 242 239 244 255 244 240 249 263 274 268 272 282 284 282 281 282 281 277 275 275 276
227 224 226 235 258 247 247 248 247 238 232 239 254 249 238 235 244 246 245 246 247 247 240 242 250 247 244 249 262 270 268 276 275 280 285 288 288 287 284 279 273 269 267
231 229 228 231 248 243 247 246 246 238 245 236 240 229 233 238 235 235 238 242 244 235 236 246 245 237 251 250 271 273 276 277 279 282 285 288 291 293 292 292 292 292 291
235 238 237 235 235 239 240 240 235 236 226 218 222 229 226 225 232 234 235 235 239 226 234 229 232 248 244 255 284 276 273 276 278 281 282 286 290 294 296 297 293 293 290
230 230 232 225 228 226 223 211 204 203 211 217 222 223 226 229 228 226 229 227 217 217 213 223 236 256 257 264 275 272 269 275 280 285 287 289 289 292 293 292 291 288 284
214 218 221 215 210 202 192 194 202 206 209 212 214 216 219 221 220 226 219 203 198 203 214 222 236 258 267 272 275 272 273 276 281 286 287 289 290 292 294 291 289 288 289
196 192 188 185 184 185 190 197 203 210 210 209 207 206 208 206 202 192 184 188 194 206 219 243 257 263 266 273 277 281 283 285 286 287 288 289 291 294 296 296 296 297 288
192 189 189 192 194 188 187 192 196 201 199 195 191 190 188 184 182 189 190 196 209 225 236 249 254 266 275 279 283 286 290 292 291 291 292 294 294 293 296 304 292 306 299
206 205 200 199 197 193 196 194 195 194 191 182 175 174 177 183 183 194 202 207 224 234 240 253 265 272 276 280 287 294 297 301 305 308 310 311 312 311 299 291 303 302 301
211 207 203 200 203 204 202 196 188 180 177 175 179 175 181 192 201 212 219 227 235 245 257 268 276 282 287 291 295 299 301 305 309 311 313 314 314 313 311 303 292 291 297
208 203 200 200 201 196 191 181 180 182 188 187 181 177 188 202 213 220 227 238 252 261 273 283 290 294 296 298 300 298 301 307 310 312 314 316 317 317 316 315 308 294 284
203 201 198 193 189 187 191 187 187 193 198 197 198 199 199 202 210 221 233 249 264 278 284 289 293 293 294 295 295 300 306 309 313 316 318 317 318 318 317 317 308 303 285
201 195 190 189 189 191 192 193 195 195 197 200 201 205 208 213 225 238 251 267 277 283 287 290 289 291 294 297 304 308 312 316 318 318 317 317 318 319 321 320 320 313 306
192 188 192 195 190 184 186 187 192 192 209 217 213 220 228 234 245 259 269 274 279 284 291 293 292 294 299 305 309 312 315 316 317 318 319 320 321 321 324 323 326 318 314
189 190 192 190 189 187 184 178 180 193 205 217 224 235 243 252 260 266 270 278 285 294 297 297 299 302 306 311 314 315 316 318 320 319 320 321 322 323 324 324 328 326 322
191 175 171 175 177 183 188 199 208 203 222 229 235 242 248 261 275 281 285 294 297 298 298 300 302 305 311 313 314 314 317 320 318 318 319 320 321 323 325 327 330 327 326
179 177 184 183 187 191 194 195 201 211 238 260 290 298 296 298 301 307 312 316 310 301 301 304 306 307 309 310 311 312 315 315 315 316 317 318 322 323 327 328 330 328 328
169 165 164 167 181 190 204 232 237 255 275 285 289 285 291 292 295 298 305 308 303 299 301 302 303 303 306 308 308 310 311 313 314 315 315 314 320 323 326 328 328 327 326
165 157 163 182 206 222 233 240 242 253 262 264 272 280 286 286 290 298 302 301 297 298 301 303 303 305 307 308 308 308 309 312 314 315 315 316 319 325 327 328 328 329 325
158 181 209 205 212 226 243 257 263 269 277 280 282 283 282 286 294 300 302 300 298 299 302 303 306 309 310 311 308 308 311 313 314 313 315 316 322 323 326 326 327 327 325
173 178 197 221 249 270 279 286 292 295 294 290 286 284 287 292 296 297 296 294 296 298 300 304 306 311 314 311 308 308 307 308 308 311 316 319 320 321 325 325 325 325 328
136 149 275 308 311 310 311 305 295 291 292 292 292 292 293 295 295 295 295 296 296 297 300 302 305 308 309 303 303 303 302 303 304 310 316 316 316 318 322 321 323 325 326
29 15 359 342 329 325 322 312 308 309 304 301 301 300 298 297 297 297 298 298 297 298 301 303 304 305 303 303 303 296 290 292 299 308 309 311 314 317 317 319 320 321 321
9 0 350 342 333 327 321 317 314 310 307 306 305 302 301 303 307 306 303 305 306 304 302 302 301 301 301 300 297 290 288 293 300 304 306 308 313 312 314 314 315 316 320
354 347 344 336 328 322 319 315 313 311 309 309 307 308 312 313 313 316 316 313 310 305 303 303 304 302 298 295 291 288 293 297 300 302 304 309 313 312 315 314 313 314 319